Flag for U.S.A. Weather past 2 weeks in Marengo, Indiana, U.S.A.

Now
84 °F

Partly sunny.


Feels Like: 85 °F
Forecast: 58 / 83 °F
Wind: 12 mph from Southwest

Location: Bowling Green-Warren County Regional Airport

Current Time: Sep 20, 2014 at 4:42:07 PM

Latest Report: Sep 20, 2014 at 3:53 PM


Visibility: 10 mi

Pressure: 30.01 "Hg

Humidity: 49%

Dew point: 63 °F

Location of MarengoLocation

Historic Weather in Marengo — Graph

°F

Marengo temperature yesterday

Maximum temperature yesterday: 81 °F (at 4:53 PM)
Minimum temperature yesterday: 54 °F (at 7:53 AM)
Average temperature yesterday: 67 °F

Past Weeks' High & Low Weather Summary

 TemperatureHumidityPressure
High90 °F (Sep 5, 3:53 PM)97% (Sep 9, 1:53 AM)30.29 "Hg (Sep 9, 1:53 AM)
Low49 °F (Sep 14, 3:53 AM)41% (Sep 14, 6:53 PM)29.82 "Hg (Sep 10, 7:53 PM)
Average69 °F76%30.07 "Hg
* Reported Sep 5 3:53 PM — Sep 20 3:53 PM, Marengo, Weather by CustomWeather, © 2014

Note: Actual official high and low records may vary slightly from our data, if they occured in-between our weather recording intervals... More about our weather records

Advertising

Marengo weather history for previous 24 hours

 ConditionsComfort  
Time TempWeatherWind HumidityBarometerVisibility
3:53 PM
Sep 20
84 °FPartly sunny.12 mph49%30.01 "Hg10 mi
2:53 PM83 °FScattered clouds.12 mph53%30.03 "Hg10 mi
1:53 PM81 °FPartly sunny.10 mph56%30.06 "Hg10 mi
8:53 AM69 °FSunny.6 mph81%30.11 "Hg10 mi
7:53 AM65 °FClear.No wind87%30.10 "Hg10 mi
6:53 AM67 °FPassing clouds.5 mph85%30.08 "Hg10 mi
5:53 AM68 °FClear.6 mph84%30.06 "Hg10 mi
4:53 AM69 °FClear.9 mph81%30.04 "Hg10 mi
3:53 AM69 °FClear.8 mph81%30.04 "Hg10 mi
2:53 AM64 °FPartly cloudy.No wind90%30.05 "Hg10 mi
1:53 AM63 °FPassing clouds.No wind90%30.04 "Hg10 mi
12:53 AM63 °FPassing clouds.No wind93%30.05 "Hg10 mi
11:53 PM
Sep 19
64 °FClear.No wind84%30.05 "Hg10 mi
10:53 PM67 °FClear.No wind81%30.05 "Hg10 mi
9:53 PM68 °FClear.No wind78%30.04 "Hg10 mi
8:53 PM71 °FClear.No wind71%30.03 "Hg10 mi
7:53 PM72 °FSunny.3 mph66%30.03 "Hg10 mi
6:53 PM78 °FSunny.6 mph56%30.02 "Hg10 mi
5:53 PM81 °FSunny.5 mph49%30.02 "Hg10 mi
4:53 PM81 °FPassing clouds.6 mph47%30.03 "Hg10 mi
Weather by CustomWeather, © 2014

See weather overviewHow to use our weather pages